Holland, IN

12:46 PM EST on February 23, 2017 (GMT -0500)
Huntingburg

Weather History for KHNB - May, 2013

Change the Weather History Date:

Friday, May 10, 2013

  Actual Average Record
Temperature  
Mean Temperature 64 °F -  
Max Temperature 69 °F 72 °F 87 °F (2007)
Min Temperature 60 °F 53 °F 42 °F (1997)
Growing Degree Days 14 (Base 50)    
Moisture  
Dew Point 59 °F    
Average Humidity 83    
Maximum Humidity 94    
Minimum Humidity 73    
Precipitation  
Precipitation 0.68 in - - ()
Sea Level Pressure  
Sea Level Pressure 29.90 in    
Wind  
Wind Speed 7 mph (SSW)    
Max Wind Speed 10 mph    
Max Gust Speed -    
Visibility 9 miles    
Events Thunderstorm    
Averages and records for this station are not official NWS values.
T = Trace of Precipitation, MM = Missing Value Source: NWS Daily Summary

Daily Weather History Graph

Daily Weather History Graph

Search for Another Location

Airport or City:

Trip Planner

Search our weather history database for the weather conditions in past years. The results will help you decide how hot, cold, wet, or windy it might be!

Date:

Astronomy

May. 10, 2013 Rise Set
Actual Time 6:41 AM EDT 8:47 PM EDT
Civil Twilight 6:11 AM EDT 9:17 PM EDT
Nautical Twilight 5:36 AM EDT 9:52 PM EDT
Astronomical Twilight 4:57 AM EDT 10:31 PM EDT
Moon 7:05 AM EDT (5/10) 9:36 PM EDT (5/10)
Length of Visible Light 15h 05m
Length of Day
14h 06m
New Moon, 0% of the Moon is Illuminated
May 10
New Moon
May 18
First Quarter
May 25
Full
May 31
Last Quarter
Jun 8
New

Hourly Weather History & Observations

Time (EDT) Temp. Dew Point Humidity Pressure Visibility Wind Dir Wind Speed Gust Speed Precip Events Conditions
12:15 AM 66.2 °F 57.2 °F 73% 29.95 in 10.0 mi South 9.2 mph - N/A   Clear
12:35 AM 66.2 °F 57.2 °F 73% 29.95 in 10.0 mi South 10.4 mph - N/A   Clear
12:55 AM 66.2 °F 59.0 °F 78% 29.95 in 10.0 mi South 9.2 mph - N/A   Partly Cloudy
1:15 AM 66.2 °F 57.2 °F 73% 29.94 in 10.0 mi South 9.2 mph - N/A   Clear
1:55 AM 66.2 °F 57.2 °F 73% 29.94 in 10.0 mi South 8.1 mph - N/A   Clear
2:15 AM 66.2 °F 57.2 °F 73% 29.94 in 10.0 mi South 8.1 mph - N/A   Clear
2:35 AM 66.2 °F 57.2 °F 73% 29.93 in 10.0 mi South 6.9 mph - N/A   Clear
2:55 AM 64.4 °F 57.2 °F 77% 29.93 in 10.0 mi SSW 5.8 mph - N/A   Partly Cloudy
3:15 AM 66.2 °F 57.2 °F 73% 29.92 in 10.0 mi South 8.1 mph - N/A   Clear
3:35 AM 66.2 °F 57.2 °F 73% 29.92 in 10.0 mi South 9.2 mph - N/A   Clear
3:55 AM 64.4 °F 57.2 °F 77% 29.91 in 10.0 mi South 8.1 mph - N/A   Clear
4:15 AM 64.4 °F 57.2 °F 77% 29.90 in 10.0 mi South 8.1 mph - N/A   Clear
4:35 AM 64.4 °F 57.2 °F 77% 29.90 in 10.0 mi South 8.1 mph - N/A   Clear
4:55 AM 64.4 °F 57.2 °F 77% 29.90 in 10.0 mi South 10.4 mph - N/A   Clear
5:15 AM 64.4 °F 57.2 °F 77% 29.90 in 10.0 mi South 9.2 mph - N/A   Clear
5:35 AM 64.4 °F 57.2 °F 77% 29.89 in 10.0 mi South 5.8 mph - N/A   Clear
5:55 AM 64.4 °F 57.2 °F 77% 29.89 in 10.0 mi South 6.9 mph - N/A   Clear
6:15 AM 64.4 °F 57.2 °F 77% 29.89 in 10.0 mi South 6.9 mph - N/A   Clear
6:35 AM 64.4 °F 57.2 °F 77% 29.89 in 10.0 mi South 4.6 mph - N/A   Clear
6:55 AM 62.6 °F 57.2 °F 82% 29.89 in 10.0 mi SSE 3.5 mph - N/A   Clear
7:15 AM 64.4 °F 57.2 °F 77% 29.89 in 10.0 mi South 5.8 mph - N/A   Clear
7:35 AM 64.4 °F 57.2 °F 77% 29.89 in 10.0 mi South 5.8 mph - N/A   Clear
8:15 AM 64.4 °F 57.2 °F 77% 29.90 in 10.0 mi South 6.9 mph - N/A   Clear
8:35 AM 64.4 °F 59.0 °F 83% 29.90 in 10.0 mi South 6.9 mph - N/A   Clear
9:15 AM 64.4 °F 59.0 °F 83% 29.90 in 8.0 mi South 8.1 mph - 0.01 in   Scattered Clouds
9:35 AM 62.6 °F 60.8 °F 94% 29.91 in 5.0 mi South 6.9 mph - 0.03 in   Mostly Cloudy
9:55 AM 62.6 °F 60.8 °F 94% 29.92 in 4.0 mi SW 3.5 mph - 0.05 in   Mostly Cloudy
10:15 AM 64.4 °F 60.8 °F 88% 29.91 in 4.0 mi South 5.8 mph - 0.01 in   Overcast
10:35 AM 64.4 °F 60.8 °F 88% 29.91 in 3.0 mi South 5.8 mph - 0.02 in   Overcast
10:55 AM 64.4 °F 60.8 °F 88% 29.91 in 4.0 mi SSW 9.2 mph - 0.03 in   Overcast
11:15 AM 64.4 °F 60.8 °F 88% 29.91 in 4.0 mi SSW 10.4 mph - 0.14 in   Overcast
11:35 AM 64.4 °F 60.8 °F 88% 29.91 in 8.0 mi SSW 6.9 mph - 0.17 in   Mostly Cloudy
11:55 AM 64.4 °F 62.6 °F 94% 29.90 in 5.0 mi South 6.9 mph - 0.17 in   Mostly Cloudy
12:15 PM 64.4 °F 60.8 °F 88% 29.90 in 4.0 mi South 10.4 mph - N/A   Mostly Cloudy
12:35 PM 64.4 °F 60.8 °F 88% 29.91 in 7.0 mi SSW 10.4 mph - N/A   Overcast
1:15 PM 64.4 °F 60.8 °F 88% 29.91 in 10.0 mi SSW 9.2 mph - N/A   Overcast
1:55 PM 64.4 °F 60.8 °F 88% 29.90 in 10.0 mi South 10.4 mph - N/A   Mostly Cloudy
2:15 PM 64.4 °F 60.8 °F 88% 29.89 in 10.0 mi SSW 10.4 mph - N/A   Mostly Cloudy
2:35 PM 64.4 °F 60.8 °F 88% 29.88 in 10.0 mi SSW 5.8 mph - N/A   Mostly Cloudy
2:55 PM 66.2 °F 60.8 °F 83% 29.87 in 10.0 mi South 8.1 mph - N/A   Mostly Cloudy
3:15 PM 66.2 °F 60.8 °F 83% 29.87 in 10.0 mi SSW 8.1 mph - N/A   Overcast
3:35 PM 62.6 °F 59.0 °F 88% 29.87 in 9.0 mi WNW 3.5 mph - 0.10 in   Overcast
3:55 PM 64.4 °F 60.8 °F 88% 29.87 in 9.0 mi Calm Calm - 0.15 in   Overcast
4:15 PM 64.4 °F 62.6 °F 94% 29.86 in 9.0 mi Calm Calm - N/A   Mostly Cloudy
4:35 PM 66.2 °F 62.6 °F 88% 29.87 in 10.0 mi WSW 8.1 mph - N/A   Partly Cloudy
4:55 PM 66.2 °F 60.8 °F 83% 29.86 in 10.0 mi WSW 6.9 mph - N/A   Partly Cloudy
5:15 PM 66.2 °F 62.6 °F 88% 29.86 in 10.0 mi WSW 6.9 mph - N/A   Partly Cloudy
5:35 PM 66.2 °F 60.8 °F 83% 29.85 in 10.0 mi Calm Calm - N/A   Clear
5:55 PM 69.8 °F 62.6 °F 78% 29.85 in 10.0 mi WNW 4.6 mph - N/A   Clear
6:15 PM 69.8 °F 62.6 °F 78% 29.85 in 10.0 mi West 3.5 mph - N/A   Clear
6:35 PM 66.2 °F 60.8 °F 83% 29.85 in 10.0 mi SW 4.6 mph - N/A   Mostly Cloudy
6:55 PM 69.8 °F 62.6 °F 78% 29.86 in 10.0 mi South 6.9 mph - N/A   Scattered Clouds
7:15 PM 68.0 °F 60.8 °F 78% 29.85 in 10.0 mi South 4.6 mph - N/A   Partly Cloudy
7:55 PM 66.2 °F 60.8 °F 83% 29.85 in 10.0 mi Calm Calm - N/A Thunderstorm Partly Cloudy
8:15 PM 64.4 °F 60.8 °F 88% 29.86 in 8.0 mi SSW 5.8 mph - 0.02 in Thunderstorm Thunderstorm
8:35 PM 64.4 °F 60.8 °F 88% 29.87 in 7.0 mi SW 4.6 mph - 0.11 in Thunderstorm Thunderstorm
8:55 PM 64.4 °F 60.8 °F 88% 29.88 in 7.0 mi Calm Calm - 0.14 in Thunderstorm Mostly Cloudy
9:15 PM 62.6 °F 60.8 °F 94% 29.89 in 7.0 mi SSW 6.9 mph - N/A   Scattered Clouds
9:35 PM 62.6 °F 59.0 °F 88% 29.89 in 10.0 mi SSW 6.9 mph - N/A   Scattered Clouds
9:55 PM 62.6 °F 59.0 °F 88% 29.90 in 9.0 mi WNW 4.6 mph - N/A   Mostly Cloudy
10:15 PM 62.6 °F 59.0 °F 88% 29.91 in 10.0 mi North 10.4 mph - 0.14 in   Overcast
10:35 PM 60.8 °F 57.2 °F 88% 29.91 in 10.0 mi NNW 5.8 mph - 0.14 in   Scattered Clouds
10:55 PM 60.8 °F 57.2 °F 88% 29.92 in 10.0 mi NNW 5.8 mph - 0.14 in   Clear
11:15 PM 60.8 °F 57.2 °F 88% 29.93 in 10.0 mi NNW 6.9 mph - N/A   Mostly Cloudy
11:35 PM 60.8 °F 55.4 °F 82% 29.93 in 10.0 mi WNW 6.9 mph - N/A   Mostly Cloudy
11:55 PM 60.8 °F 55.4 °F 82% 29.93 in 10.0 mi NW 9.2 mph - N/A   Partly Cloudy